When you browse on this site, cookies collect data to enhance your experience and personalize the content and advertising you see.
Visit our Privacy Policy to learn more. By continuing to use the site, you agree to this use of cookies and data.
  • In Romania
  • List of Countries
  • For 7 days
  • Water Temperature
  • Weather Map
  • Weather Widgets
  • user-avatar
    Login

    Hourly Weather Tulchin

    Today, 29 January, Wednesday

    Time Temperature Precipitation Wind Pressure Humidity
    00:00 +1°C° 0 mm 3 mps 733 mmHg 89%
    01:00 0°C° 0 mm 3 mps 732 mmHg 90%
    02:00 -1°C° 0 mm 4 mps 732 mmHg 91%
    03:00 -1°C° 0 mm 4 mps 731 mmHg 92%
    04:00 -1°C° 0 mm 4 mps 730 mmHg 92%
    05:00 -1°C° 0 mm 4 mps 730 mmHg 92%
    06:00 -1°C° 0 mm 5 mps 729 mmHg 93%
    07:00 -1°C° 0 mm 5 mps 729 mmHg 94%
    08:00 -1°C° 0 mm 5 mps 729 mmHg 94%
    09:00 -1°C° 0.5 mm 5 mps 728 mmHg 94%
    10:00 0°C° 0.5 mm 5 mps 728 mmHg 93%
    11:00 +1°C° 0.5 mm 4 mps 728 mmHg 92%
    12:00 +1°C° 0.4 mm 5 mps 728 mmHg 91%
    13:00 +1°C° 0.4 mm 6 mps 729 mmHg 90%
    14:00 0°C° 0 mm 5 mps 729 mmHg 88%
    15:00 0°C° 0.1 mm 5 mps 729 mmHg 88%
    16:00 0°C° 0.1 mm 5 mps 730 mmHg 87%
    17:00 0°C° 0.1 mm 5 mps 730 mmHg 86%
    18:00 0°C° 0 mm 5 mps 730 mmHg 85%
    19:00 -1°C° 0 mm 5 mps 731 mmHg 83%
    20:00 -1°C° 0 mm 5 mps 731 mmHg 82%
    21:00 -1°C° 0 mm 5 mps 732 mmHg 81%
    22:00 -2°C° 0 mm 5 mps 732 mmHg 81%
    23:00 -3°C° 0 mm 6 mps 732 mmHg 80%

    Tomorrow, 30 January, Thursday

    Time Temperature Precipitation Wind Pressure Humidity
    00:00 -3°C° 0 mm 6 mps 732 mmHg 79%
    01:00 -2°C° 0 mm 6 mps 732 mmHg 79%
    02:00 -2°C° 0 mm 6 mps 733 mmHg 78%
    03:00 -2°C° 0 mm 6 mps 733 mmHg 78%
    04:00 -2°C° 0 mm 7 mps 733 mmHg 77%
    05:00 -2°C° 0 mm 7 mps 733 mmHg 77%
    06:00 -2°C° 0 mm 7 mps 733 mmHg 78%
    07:00 -2°C° 0 mm 7 mps 734 mmHg 79%
    08:00 -2°C° 0 mm 7 mps 734 mmHg 80%
    09:00 -1°C° 0 mm 7 mps 734 mmHg 77%
    10:00 -1°C° 0 mm 7 mps 735 mmHg 74%
    11:00 0°C° 0 mm 8 mps 735 mmHg 71%
    12:00 0°C° 0 mm 7 mps 735 mmHg 70%
    13:00 0°C° 0 mm 7 mps 735 mmHg 70%
    14:00 0°C° 0 mm 7 mps 735 mmHg 70%
    15:00 0°C° 0 mm 7 mps 735 mmHg 76%
    16:00 -1°C° 0 mm 6 mps 735 mmHg 82%
    17:00 -1°C° 0 mm 6 mps 736 mmHg 88%
    18:00 -1°C° 0 mm 6 mps 736 mmHg 88%
    19:00 -2°C° 0 mm 6 mps 736 mmHg 88%
    20:00 -2°C° 0 mm 6 mps 737 mmHg 89%
    21:00 -2°C° 0 mm 6 mps 737 mmHg 87%
    22:00 -1°C° 0 mm 5 mps 737 mmHg 86%
    23:00 -1°C° 0 mm 4 mps 737 mmHg 84%

    Day after tomorrow, 31 January, Friday

    Time Temperature Precipitation Wind Pressure Humidity
    00:00 -2°C° 0 mm 4 mps 737 mmHg 85%
    01:00 -1°C° 0 mm 3 mps 737 mmHg 86%
    02:00 -2°C° 0 mm 3 mps 737 mmHg 86%
    03:00 -2°C° 0 mm 3 mps 737 mmHg 84%
    04:00 -3°C° 0 mm 4 mps 737 mmHg 82%
    05:00 -3°C° 0 mm 4 mps 736 mmHg 80%
    06:00 -2°C° 0 mm 4 mps 736 mmHg 76%
    07:00 -2°C° 0 mm 4 mps 736 mmHg 73%
    08:00 -2°C° 0 mm 5 mps 736 mmHg 69%
    09:00 -1°C° 0 mm 5 mps 735 mmHg 67%
    10:00 0°C° 0 mm 5 mps 734 mmHg 64%
    11:00 +1°C° 0 mm 5 mps 734 mmHg 62%
    12:00 +2°C° 0 mm 5 mps 733 mmHg 60%
    13:00 +2°C° 0 mm 5 mps 733 mmHg 59%
    14:00 +3°C° 0 mm 6 mps 732 mmHg 58%
    15:00 +2°C° 0.4 mm 5 mps 732 mmHg 70%
    16:00 0°C° 0.4 mm 5 mps 731 mmHg 82%
    17:00 -1°C° 0.4 mm 4 mps 730 mmHg 94%
    18:00 0°C° 0.7 mm 4 mps 731 mmHg 95%
    19:00 +1°C° 0.7 mm 3 mps 731 mmHg 96%
    20:00 +1°C° 0.7 mm 3 mps 731 mmHg 98%
    21:00 +2°C° 0.1 mm 3 mps 731 mmHg 97%
    22:00 +2°C° 0.1 mm 3 mps 731 mmHg 96%
    23:00 +2°C° 0.1 mm 3 mps 732 mmHg 95%

    1 February, Saturday

    Time Temperature Precipitation Wind Pressure Humidity
    00:00 +1°C° 0 mm 4 mps 732 mmHg 94%
    01:00 +1°C° 0 mm 4 mps 733 mmHg 93%
    02:00 +1°C° 0 mm 4 mps 733 mmHg 93%
    03:00 +1°C° 0 mm 4 mps 734 mmHg 93%
    04:00 +1°C° 0 mm 4 mps 734 mmHg 93%
    05:00 +1°C° 0 mm 4 mps 734 mmHg 94%
    06:00 +2°C° 0 mm 3 mps 734 mmHg 94%
    07:00 +2°C° 0 mm 3 mps 735 mmHg 94%
    08:00 +3°C° 0 mm 3 mps 735 mmHg 94%
    09:00 +3°C° 0 mm 3 mps 736 mmHg 91%
    10:00 +4°C° 0 mm 4 mps 736 mmHg 89%
    11:00 +4°C° 0 mm 4 mps 736 mmHg 86%
    12:00 +5°C° 0 mm 4 mps 736 mmHg 84%
    13:00 +6°C° 0 mm 4 mps 736 mmHg 81%
    14:00 +6°C° 0 mm 4 mps 736 mmHg 79%
    15:00 +6°C° 0 mm 4 mps 736 mmHg 82%
    16:00 +5°C° 0 mm 4 mps 736 mmHg 86%
    17:00 +5°C° 0 mm 3 mps 736 mmHg 89%
    18:00 +5°C° 0 mm 3 mps 736 mmHg 88%
    19:00 +5°C° 0 mm 3 mps 736 mmHg 87%
    20:00 +5°C° 0 mm 3 mps 736 mmHg 86%
    21:00 +5°C° 0 mm 3 mps 736 mmHg 85%
    22:00 +4°C° 0 mm 4 mps 735 mmHg 83%
    23:00 +4°C° 0 mm 4 mps 735 mmHg 81%

    2 February, Sunday

    Time Temperature Precipitation Wind Pressure Humidity
    00:00 +4°C° 0 mm 4 mps 735 mmHg 82%
    01:00 +4°C° 0 mm 4 mps 734 mmHg 83%
    02:00 +4°C° 0 mm 4 mps 734 mmHg 84%
    03:00 +3°C° 0 mm 5 mps 733 mmHg 83%
    04:00 +5°C° 0 mm 5 mps 733 mmHg 81%
    05:00 +4°C° 0 mm 6 mps 732 mmHg 80%
    06:00 +5°C° 0 mm 5 mps 732 mmHg 81%
    07:00 +5°C° 0 mm 5 mps 732 mmHg 82%
    08:00 +5°C° 0 mm 5 mps 731 mmHg 83%
    09:00 +5°C° 0 mm 5 mps 731 mmHg 81%
    10:00 +6°C° 0 mm 5 mps 731 mmHg 79%
    11:00 +7°C° 0 mm 6 mps 731 mmHg 77%
    12:00 +7°C° 0.1 mm 6 mps 731 mmHg 76%
    13:00 +7°C° 0.1 mm 6 mps 731 mmHg 74%
    14:00 +6°C° 0.1 mm 7 mps 731 mmHg 73%
    15:00 +5°C° 0 mm 8 mps 732 mmHg 75%
    16:00 +4°C° 0 mm 8 mps 732 mmHg 78%
    17:00 +2°C° 0 mm 9 mps 732 mmHg 80%
    18:00 +2°C° 0 mm 8 mps 733 mmHg 78%
    19:00 +3°C° 0 mm 7 mps 733 mmHg 77%
    20:00 +3°C° 0 mm 6 mps 734 mmHg 75%
    21:00 +2°C° 0 mm 6 mps 734 mmHg 76%
    22:00 +2°C° 0 mm 6 mps 734 mmHg 77%
    23:00 +2°C° 0 mm 6 mps 734 mmHg 77%

    3 February, Monday

    Time Temperature Precipitation Wind Pressure Humidity
    00:00 +1°C° 0 mm 6 mps 734 mmHg 80%
    01:00 +1°C° 0 mm 6 mps 734 mmHg 82%
    02:00 0°C° 0 mm 7 mps 734 mmHg 85%
    03:00 0°C° 0 mm 7 mps 734 mmHg 84%
    04:00 0°C° 0 mm 7 mps 733 mmHg 82%
    05:00 +2°C° 0 mm 7 mps 733 mmHg 81%
    06:00 +1°C° 0 mm 6 mps 733 mmHg 81%
    07:00 +1°C° 0 mm 6 mps 733 mmHg 81%
    08:00 +1°C° 0 mm 6 mps 733 mmHg 81%
    09:00 +2°C° 0 mm 6 mps 733 mmHg 78%
    10:00 +2°C° 0 mm 6 mps 733 mmHg 74%
    11:00 +3°C° 0 mm 7 mps 734 mmHg 70%
    12:00 +3°C° 0 mm 7 mps 734 mmHg 70%
    13:00 +3°C° 0 mm 7 mps 734 mmHg 70%
    14:00 +3°C° 0 mm 6 mps 734 mmHg 69%
    15:00 +2°C° 0 mm 6 mps 734 mmHg 70%
    16:00 +2°C° 0 mm 5 mps 734 mmHg 70%
    17:00 +2°C° 0 mm 5 mps 735 mmHg 71%
    18:00 +1°C° 0 mm 4 mps 735 mmHg 73%
    19:00 +1°C° 0 mm 4 mps 736 mmHg 76%
    20:00 0°C° 0 mm 4 mps 736 mmHg 79%
    21:00 0°C° 0 mm 4 mps 736 mmHg 81%
    22:00 -1°C° 0 mm 4 mps 736 mmHg 83%
    23:00 -1°C° 0 mm 4 mps 737 mmHg 85%
    Show more